Menu       Home   X °C

Select another period ( hide this area )

Units Period Custom range Directly to
Metric English Both
Daily Weekly Monthly Yearly
use both date-selectors for a custom range
previous Day
With this date
Daily Summary for Thursday 23 May 2024
Time Temp. ( °F ) Dew pt. ( °F ) Wind ( mph ) From Gust ( mph ) Pressure ( in ) Humid.( % ) Rainrate ( in )
High62.2 57.0 5.0 SE ( 127/284 ) 6.8 29.90 92 -
Average58.6 54.9 1.4 Calm #53/129 2.1 29.86 88 -
Low55.9 53.2 -   0.0 29.83 80 -
Daily Tabular details for Thursday 23 May 2024
Time Temp. ( °F ) Dew pt. ( °F ) Wind ( mph ) From Gust ( mph ) Pressure ( in ) Humid.( % ) Rainrate ( in )
00:04 61.2 57.0   Calm   29.83 86 -
00:09 61.2 57.0   Calm   29.83 86 -
00:14 61.0 56.8   Calm   29.83 86 -
00:19 61.0 56.8   Calm   29.83 86 -
00:24 61.0 56.8 0.6 East 1.2 29.84 86 -
00:29 61.0 56.8   Calm   29.83 86 -
00:34 61.0 56.8   Calm   29.83 86 -
00:39 61.0 56.8   Calm   29.83 86 -
00:44 61.0 56.8 1.9 SE 2.5 29.83 86 -
00:49 61.0 56.8   Calm   29.84 86 -
00:54 61.0 57.0   Calm   29.84 87 -
00:59 60.8 57.0   Calm   29.84 87 -
01:04 60.6 56.8   Calm   29.84 87 -
01:09 60.4 56.7   Calm   29.84 87 -
01:14 60.3 56.5   Calm   29.84 87 -
01:19 60.1 56.3   Calm   29.84 88 -
01:24 59.9 56.3   Calm   29.84 88 -
01:29 59.5 56.3   Calm   29.84 89 -
01:34 59.4 56.1   Calm   29.84 89 -
01:39 59.0 55.9   Calm   29.84 90 -
01:44 59.0 56.3   Calm   29.84 91 -
01:49 59.0 56.5   Calm   29.84 91 -
01:52 59.0 56.5   Calm   29.84 91 -
01:59 59.2 56.8   Calm   29.84 92 -
02:04 59.4 56.8   Calm   29.84 91 -
02:09 59.4 56.8   Calm   29.84 91 -
02:14 59.5 56.7   Calm   29.84 90 -
02:19 59.5 56.3   Calm   29.84 89 -
02:24 59.7 56.1   Calm   29.84 88 -
02:29 59.5 55.8 0.6 East 1.2 29.84 87 -
02:34 59.5 55.8 0.6 East 1.2 29.85 87 -
02:39 59.5 55.8   Calm   29.85 87 -
02:44 59.4 55.6 1.9 ESE 2.5 29.85 87 -
02:49 59.4 55.6   Calm   29.84 88 -
02:51 59.0 55.4   Calm   29.84 88 -
02:59 58.8 55.2   Calm   29.85 88 -
03:04 58.6 55.0   Calm   29.85 88 -
03:09 58.5 54.9   Calm   29.85 88 -
03:14 58.3 55.0   Calm   29.85 89 -
03:19 58.3 55.0   Calm   29.85 89 -
03:24 58.1 54.9   Calm   29.85 89 -
03:29 57.9 54.7   Calm   29.85 89 -
03:34 57.9 54.7   Calm   29.85 89 -
03:39 57.7 54.7   Calm   29.85 90 -
03:44 57.6 54.7   Calm   29.85 90 -
03:54 57.6 54.7   Calm   29.85 90 -
03:59 57.6 54.7   Calm   29.85 90 -
04:04 57.6 54.3   Calm   29.85 89 -
04:09 57.6 54.3 1.2 SSE 2.5 29.85 89 -
04:14 57.6 54.3 0.6 ESE 1.2 29.85 89 -
04:19 57.4 54.1   Calm 1.2 29.85 89 -
04:24 57.2 54.0   Calm   29.85 89 -
04:29 57.2 54.0   Calm   29.86 89 -
04:34 57.0 53.8   Calm   29.86 89 -
04:39 57.0 53.8   Calm   29.86 89 -
04:44 57.0 53.8   Calm   29.86 89 -
04:49 56.8 53.6   Calm   29.86 89 -
04:54 56.8 53.6   Calm   29.85 89 -
04:59 56.8 53.6   Calm   29.86 89 -
05:04 56.7 53.4   Calm   29.86 89 -
05:09 56.7 53.4 2.5 ESE 4.3 29.86 89 -
05:14 56.5 53.2 1.9 East 2.5 29.85 89 -
05:19 56.5 53.2 1.2 SE 3.7 29.86 89 -
05:24 56.3 53.4 2.5 SE 3.7 29.86 90 -
05:29 56.1 53.2 1.2 SSE 2.5 29.86 90 -
05:34 56.1 53.2 1.9 SSE 2.5 29.86 90 -
05:39 56.1 53.2 0.6 ESE 2.5 29.86 90 -
05:44 56.1 53.2 2.5 ESE 3.7 29.86 90 -
05:49 56.1 53.2 0.6 ESE 1.2 29.86 90 -
05:54 56.1 53.2 2.5 ESE 4.3 29.86 90 -
05:59 56.1 53.2 2.5 ESE 3.7 29.87 90 -
06:04 56.1 53.2 1.9 East 2.5 29.86 90 -
06:09 56.1 53.2 1.2 East 2.5 29.86 90 -
06:14 55.9 53.4 1.9 SSE 3.7 29.86 91 -
06:19 55.9 53.4 0.6 ESE 2.5 29.87 91 -
06:24 55.9 53.4 2.5 ESE 3.7 29.87 91 -
06:29 56.1 53.6 1.2 ESE 2.5 29.87 91 -
06:34 56.1 53.6 2.5 SE 3.7 29.87 91 -
06:39 56.3 53.4 3.7 ESE 5.6 29.88 90 -
06:44 56.3 53.4 2.5 SE 3.7 29.87 90 -
06:49 56.1 53.2 1.9 ESE 2.5 29.87 90 -
06:54 56.1 53.2 1.9 ESE 3.7 29.87 90 -
06:59 56.1 53.2 3.1 ESE 3.7 29.87 90 -
07:04 56.1 53.2 2.5 ESE 3.7 29.88 90 -
07:09 56.1 53.2 3.1 SE 5.6 29.88 90 -
07:14 56.3 53.4 2.5 East 3.7 29.88 90 -
07:19 56.3 53.4 2.5 ESE 3.7 29.88 90 -
07:24 56.5 53.6 3.7 ESE 5.6 29.88 90 -
07:29 56.5 53.6 4.3 East 6.8 29.88 90 -
07:34 56.8 53.8 2.5 ESE 4.3 29.88 90 -
07:39 56.8 53.6 2.5 East 3.7 29.88 89 -
07:44 57.0 53.8 1.9 ESE 2.5 29.88 89 -
07:49 57.2 54.0 2.5 South 4.3 29.88 89 -
07:54 57.2 54.0 2.5 ESE 3.7 29.88 89 -
07:59 57.2 53.6 1.9 SE 2.5 29.88 88 -
08:04 57.6 54.0 2.5 ESE 3.7 29.88 88 -
08:09 57.6 54.0 2.5 SE 3.7 29.89 88 -
08:14 57.6 54.0 2.5 SE 3.7 29.88 88 -
08:19 57.9 54.3 1.9 ESE 2.5 29.88 88 -
08:24 57.9 54.3 3.1 SE 5.6 29.88 88 -
08:29 58.1 54.5 1.9 East 3.7 29.89 88 -
08:34 58.1 54.5 2.5 SE 3.7 29.88 88 -
08:39 58.3 54.5 2.5 East 3.7 29.88 88 -
08:44 58.5 54.7 3.7 SE 4.3 29.89 87 -
08:49 58.8 55.0 1.9 ESE 2.5 29.88 87 -
08:54 58.8 55.0 3.7 SE 4.3 29.89 87 -
08:59 59.4 55.2 2.5 ESE 3.7 29.89 87 -
09:04 59.7 55.2 2.5 ESE 3.7 29.89 86 -
09:09 59.9 55.4 1.9 SE 2.5 29.89 85 -
09:14 60.1 55.6 5.0 SE 6.8 29.89 85 -
09:19 60.3 55.6 2.5 SE 3.7 29.89 85 -
09:24 60.8 55.6 2.5 SE 3.7 29.89 84 -
09:29 61.2 55.9 3.1 SE 4.3 29.89 83 -
09:34 61.3 55.8 2.5 SE 5.6 29.89 82 -
09:39 61.7 56.1 1.9 East 3.7 29.89 82 -
09:44 61.7 56.1 2.5 SE 3.7 29.89 82 -
09:49 62.1 56.1 0.6 ESE 1.2 29.89 82 -
09:54 62.2 55.9 3.7 SE 5.6 29.89 80 -
09:59 62.2 55.9 3.7 ESE 5.6 29.90 80 -
10:04 62.1 55.8 3.7 East 4.3 29.89 80 -
10:09 61.7 55.4 2.5 SE 4.3 29.89 80 -
10:14 61.7 55.6 3.1 SE 4.3 29.89 81 -
10:19 61.3 55.6 3.1 SE 4.3 29.90 82 -
10:24 61.2 55.6 3.7 SE 4.3 29.90 82 -
10:29 61.0 55.8 3.1 SE 3.7 29.90 83 -
10:34 60.8 55.6 3.7 SE 5.6 29.90 83 -
10:39 60.6 55.4 2.5 SE 2.5 29.90 83 -
10:44 61.2 55.8 1.9 ESE 2.5 29.90 83 -
10:49 61.9 56.3 1.2 ESE 1.2 29.90 83 -

Download your copy of this data-set  from WeatherUnderground

Our weather-data as stored at Weather Underground

Flag Counter